Weather History for Burlington, NC

Change the Weather History Date:

Tuesday, June 25, 2013

  Actual Average Record
Temperature  
Mean Temperature 78 °F -  
Max Temperature 89 °F 87 °F 97 °F (1956)
Min Temperature 69 °F 65 °F 54 °F (1979)
Cooling Degree Days 14    
Growing Degree Days 28 (Base 50)    
Moisture  
Dew Point 70 °F    
Average Humidity 84    
Maximum Humidity 94    
Minimum Humidity 53    
Precipitation  
Precipitation 1.26 in - - ()
Sea Level Pressure  
Sea Level Pressure 30.08 in    
Wind  
Wind Speed 6 mph (SW)    
Max Wind Speed 21 mph    
Max Gust Speed 33 mph    
Visibility 8 miles    
Events Fog , Rain    
Averages and records for this station are not official NWS values.
T = Trace of Precipitation, MM = Missing Value Source: NWS Daily Summary

Daily Weather History Graph

Daily Weather History Graph

Search for Another Location

Airport:

Trip Planner

Search our weather history database for the weather conditions in past years. The results will help you decide how hot, cold, wet, or windy it might be!

Date:

Astronomy

Jun. 25, 2013 Rise Set
Actual Time 6:02 AM EDT 8:38 PM EDT
Civil Twilight 5:32 AM EDT 9:08 PM EDT
Nautical Twilight 4:54 AM EDT 9:46 PM EDT
Astronomical Twilight 4:12 AM EDT 10:28 PM EDT
Moon 10:29 PM EDT (6/25) 8:35 AM EDT (6/25)
Length of Visible Light 15h 36m
Length of Day
14h 36m
Waning Gibbous, 93% of the Moon is Illuminated
Jun 25
Waning Gibbous
Jun 30
Last Quarter
Jul 8
New
Jul 15
First Quarter
Jul 22
Full

Hourly Weather History & Observations

Time (EDT) Temp. Heat Index Dew Point Humidity Pressure Visibility Wind Dir Wind Speed Gust Speed Precip Events Conditions
12:54 AM 71.1 °F - 66.9 °F 87% 30.12 in 10.0 mi SSW 5.8 mph - N/A   Clear
1:54 AM 70.0 °F - 66.9 °F 90% 30.12 in 10.0 mi South 3.5 mph - N/A   Clear
2:54 AM 70.0 °F - 68.0 °F 93% 30.11 in 10.0 mi Calm Calm - N/A   Clear
3:54 AM 71.1 °F - 68.0 °F 90% 30.10 in 10.0 mi SW 4.6 mph - N/A   Scattered Clouds
4:54 AM 70.0 °F - 68.0 °F 93% 30.10 in 10.0 mi SSW 4.6 mph - N/A   Clear
5:54 AM 70.0 °F - 68.0 °F 93% 30.10 in 9.0 mi SSW 4.6 mph - N/A   Clear
6:44 AM 69.8 °F - 68.0 °F 94% 30.12 in 7.0 mi SW 5.8 mph - N/A   Scattered Clouds
6:54 AM 70.0 °F - 68.0 °F 93% 30.10 in 6.0 mi SSW 4.6 mph - N/A   Mostly Cloudy
7:54 AM 72.0 °F - 69.1 °F 91% 30.10 in 5.0 mi SW 6.9 mph - N/A   Overcast
8:10 AM 71.6 °F - 69.8 °F 94% 30.12 in 7.0 mi SW 4.6 mph - N/A   Overcast
8:27 AM 73.4 °F - 69.8 °F 88% 30.12 in 8.0 mi SW 6.9 mph - N/A   Overcast
8:54 AM 75.9 °F - 71.1 °F 85% 30.11 in 9.0 mi SW 9.2 mph - N/A   Overcast
9:12 AM 75.2 °F - 71.6 °F 89% 30.12 in 9.0 mi SW 8.1 mph - N/A   Overcast
9:54 AM 77.0 °F - 71.1 °F 82% 30.12 in 9.0 mi West 11.5 mph - N/A   Overcast
10:54 AM 80.1 °F 83.8 °F 72.0 °F 76% 30.12 in 9.0 mi WSW 8.1 mph - N/A   Overcast
11:36 AM 80.6 °F 84.6 °F 71.6 °F 74% 30.13 in 10.0 mi Variable 5.8 mph - N/A   Scattered Clouds
11:54 AM 82.0 °F 86.7 °F 72.0 °F 71% 30.12 in 10.0 mi SW 8.1 mph - N/A   Partly Cloudy
12:54 PM 84.9 °F 90.7 °F 72.0 °F 65% 30.10 in 10.0 mi South 4.6 mph - N/A   Scattered Clouds
1:54 PM 87.1 °F 94.5 °F 73.0 °F 63% 30.08 in 10.0 mi SW 6.9 mph - N/A   Clear
2:54 PM 88.0 °F 93.8 °F 71.1 °F 57% 30.04 in 10.0 mi Variable 4.6 mph - N/A   Partly Cloudy
3:54 PM 88.0 °F 92.1 °F 69.1 °F 53% 30.03 in 10.0 mi Calm Calm - N/A   Scattered Clouds
4:54 PM 87.1 °F 93.6 °F 72.0 °F 61% 30.01 in 10.0 mi SE 9.2 mph - N/A   Mostly Cloudy
5:54 PM 82.0 °F 85.9 °F 70.0 °F 67% 30.01 in 10.0 mi South 9.2 mph 19.6 mph N/A   Overcast
6:13 PM 77.0 °F - 71.6 °F 83% 30.08 in 0.8 mi North 20.7 mph 33.4 mph 0.35 in Rain Heavy Rain
6:19 PM 75.2 °F - 71.6 °F 89% 30.08 in 0.2 mi NW 10.4 mph 33.4 mph 0.62 in Fog , Rain Heavy Rain
6:23 PM 73.4 °F - 71.6 °F 94% 30.06 in 0.5 mi NNW 6.9 mph 21.9 mph 0.78 in Fog , Rain Heavy Rain
6:27 PM 73.4 °F - 69.8 °F 88% 30.06 in 0.2 mi WSW 8.1 mph - 0.91 in Fog , Rain Heavy Rain
6:42 PM 73.4 °F - 69.8 °F 88% 30.04 in 1.0 mi WSW 5.8 mph - 1.22 in Rain Heavy Rain
6:52 PM 73.4 °F - 69.8 °F 88% 30.03 in 3.0 mi WSW 4.6 mph - 1.25 in Rain Light Rain
6:54 PM 73.0 °F - 71.1 °F 93% 30.01 in 5.0 mi WSW 3.5 mph - 1.25 in Rain Light Rain
7:54 PM 73.9 °F - 71.1 °F 91% 30.02 in 10.0 mi South 3.5 mph - 0.01 in   Scattered Clouds
8:54 PM 73.9 °F - 72.0 °F 93% 30.01 in 9.0 mi Calm Calm - N/A   Clear
9:54 PM 73.0 °F - 71.1 °F 93% 30.02 in 10.0 mi Calm Calm - N/A   Clear
10:54 PM 73.9 °F - 70.0 °F 87% 30.04 in 10.0 mi Calm Calm - N/A   Clear
11:54 PM 73.0 °F - 70.0 °F 90% 30.03 in 10.0 mi SW 4.6 mph - N/A   Scattered Clouds